Weather History for Boone, NC

Change the Weather History Date:

Tuesday, July 16, 2013

  Actual Average (KGEV) Record (KGEV)
Temperature  
Mean Temperature 70 °F -  
Max Temperature 85 °F 80 °F 94 °F (1988)
Min Temperature 56 °F 58 °F 46 °F (1967)
Cooling Degree Days 6    
Growing Degree Days 20 (Base 50)    
Moisture  
Dew Point 60 °F    
Average Humidity 76    
Maximum Humidity 100    
Minimum Humidity 35    
Precipitation  
Precipitation 0.00 in - - ()
Sea Level Pressure  
Sea Level Pressure 30.44 in    
Wind  
Wind Speed 1 mph (West)    
Max Wind Speed 8 mph    
Max Gust Speed -    
Visibility 8 miles    
Events Thunderstorm    
Averages and records for this station are not official NWS values.
T = Trace of Precipitation, MM = Missing Value Source: NWS Daily Summary

Daily Weather History Graph

Daily Weather History Graph

Search for Another Location

Airport:

Trip Planner

Search our weather history database for the weather conditions in past years. The results will help you decide how hot, cold, wet, or windy it might be!

Date:

Astronomy

Jul. 16, 2013 Rise Set
Actual Time 6:21 AM EDT 8:43 PM EDT
Civil Twilight 5:52 AM EDT 9:12 PM EDT
Nautical Twilight 5:15 AM EDT 9:48 PM EDT
Astronomical Twilight 4:36 AM EDT 10:28 PM EDT
Moon 2:27 PM EDT (7/16) 12:45 AM EDT (7/16)
Length of Visible Light 15h 20m
Length of Day
14h 21m
First Quarter, 56% of the Moon is Illuminated
Jul 16
First Quarter
Jul 22
Full
Jul 29
Last Quarter
Aug 6
New
Aug 14
First Quarter

Hourly Weather History & Observations

Time (EDT) Temp. Heat Index Dew Point Humidity Pressure Visibility Wind Dir Wind Speed Gust Speed Precip Events Conditions
12:15 AM 62.1 °F - 62.1 °F 100% 30.47 in 7.0 mi Calm Calm - N/A   Clear
12:35 AM 62.1 °F - 61.9 °F 99% 30.47 in 7.0 mi Calm Calm - N/A   Clear
12:55 AM 61.0 °F - 61.0 °F 100% 30.47 in 7.0 mi Calm Calm - N/A   Clear
1:15 AM 61.0 °F - 61.0 °F 100% 30.47 in 7.0 mi Calm Calm - N/A   Clear
1:35 AM 60.8 °F - 60.8 °F 100% 30.46 in 5.0 mi Calm Calm - N/A   Clear
1:55 AM 60.3 °F - 60.3 °F 100% 30.46 in 5.0 mi Calm Calm - N/A   Clear
2:15 AM 60.4 °F - 60.4 °F 100% 30.46 in 7.0 mi Calm Calm - N/A   Scattered Clouds
2:35 AM 59.4 °F - 59.4 °F 100% 30.45 in 4.0 mi Calm Calm - N/A   Scattered Clouds
2:55 AM 59.4 °F - 59.4 °F 100% 30.45 in 7.0 mi Calm Calm - N/A   Clear
3:15 AM 59.5 °F - 59.5 °F 100% 30.44 in 2.0 mi Calm Calm - N/A   Clear
3:35 AM 58.5 °F - 58.5 °F 100% 30.45 in 4.0 mi Calm Calm - N/A   Scattered Clouds
3:55 AM 59.2 °F - 59.2 °F 100% 30.44 in 1.0 mi Calm Calm - N/A   Mostly Cloudy
4:15 AM 58.5 °F - 58.5 °F 100% 30.44 in 1.0 mi Calm Calm - N/A   Mostly Cloudy
4:35 AM 57.6 °F - 57.6 °F 100% 30.44 in 3.0 mi Calm Calm - N/A   Clear
4:55 AM 58.1 °F - 58.1 °F 100% 30.44 in 3.0 mi Calm Calm - N/A   Scattered Clouds
5:15 AM 58.1 °F - 58.1 °F 100% 30.44 in 10.0 mi Calm Calm - N/A   Scattered Clouds
5:35 AM 58.1 °F - 58.1 °F 100% 30.44 in 4.0 mi Calm Calm - N/A   Clear
5:55 AM 57.6 °F - 57.6 °F 100% 30.44 in 10.0 mi Calm Calm - N/A   Clear
6:15 AM 56.7 °F - 56.7 °F 100% 30.44 in 3.0 mi Calm Calm - N/A   Clear
6:35 AM 57.7 °F - 57.7 °F 100% 30.45 in 10.0 mi Calm Calm - N/A   Clear
6:55 AM 57.2 °F - 57.2 °F 100% 30.45 in 5.0 mi Calm Calm - N/A   Clear
7:15 AM 58.5 °F - 58.5 °F 100% 30.45 in 5.0 mi Calm Calm - N/A   Clear
7:35 AM 59.7 °F - 59.7 °F 100% 30.45 in 10.0 mi Calm Calm - N/A   Clear
7:55 AM 61.2 °F - 61.2 °F 100% 30.46 in 10.0 mi Calm Calm - N/A   Clear
8:15 AM 63.7 °F - 62.6 °F 96% 30.46 in 10.0 mi Calm Calm - N/A   Clear
8:35 AM 65.3 °F - 64.0 °F 96% 30.47 in 10.0 mi WNW 3.5 mph - N/A   Clear
8:55 AM 69.1 °F - 61.9 °F 78% 30.47 in 10.0 mi WNW 4.6 mph - N/A   Clear
9:15 AM 70.7 °F - 60.1 °F 69% 30.47 in 10.0 mi WNW 4.6 mph - N/A   Clear
9:35 AM 72.5 °F - 60.3 °F 65% 30.47 in 10.0 mi WNW 5.8 mph - N/A   Clear
9:55 AM 74.3 °F - 60.4 °F 62% 30.46 in 10.0 mi WNW 3.5 mph - N/A   Clear
10:15 AM 76.5 °F - 60.6 °F 58% 30.47 in 10.0 mi Calm Calm - N/A   Clear
10:35 AM 76.3 °F - 60.1 °F 57% 30.47 in 10.0 mi Calm Calm - N/A   Clear
10:55 AM 78.1 °F - 59.5 °F 53% 30.47 in 10.0 mi NNE 3.5 mph - N/A   Clear
11:15 AM 79.0 °F - 57.4 °F 47% 30.46 in 10.0 mi NNE 3.5 mph - N/A   Clear
11:55 AM 80.4 °F 80.4 °F 55.0 °F 42% 30.46 in 10.0 mi Calm Calm - N/A   Clear
12:15 PM 81.5 °F - 52.9 °F 37% 30.45 in 10.0 mi Calm Calm - N/A   Clear
12:35 PM 82.9 °F 82.1 °F 55.9 °F 39% 30.45 in 10.0 mi Calm Calm - N/A   Clear
12:55 PM 81.9 °F - 52.5 °F 36% 30.45 in 10.0 mi Calm Calm - N/A   Clear
1:15 PM 82.6 °F 81.5 °F 53.1 °F 36% 30.44 in 10.0 mi Calm Calm - N/A   Clear
1:35 PM 84.0 °F 82.9 °F 55.2 °F 37% 30.44 in 10.0 mi NE 3.5 mph - N/A   Clear
1:55 PM 83.3 °F 82.8 °F 57.4 °F 41% 30.44 in 10.0 mi Calm Calm - N/A   Clear
2:15 PM 83.5 °F 82.9 °F 57.6 °F 41% 30.43 in 10.0 mi Calm Calm - N/A   Clear
2:35 PM 82.9 °F 82.3 °F 56.3 °F 40% 30.43 in 10.0 mi Calm Calm - N/A   Clear
2:55 PM 82.0 °F 82.1 °F 58.5 °F 45% 30.42 in 10.0 mi Calm Calm - N/A   Clear
3:15 PM 82.2 °F 81.9 °F 57.0 °F 42% 30.41 in 10.0 mi Calm Calm - N/A   Clear
3:35 PM 84.2 °F 82.8 °F 54.0 °F 35% 30.41 in 10.0 mi Calm Calm - N/A   Clear
4:55 PM 85.1 °F 85.7 °F 61.9 °F 46% 30.40 in 10.0 mi South 4.6 mph - N/A   Scattered Clouds
5:15 PM 79.5 °F - 61.5 °F 54% 30.40 in 10.0 mi South 3.5 mph - N/A   Mostly Cloudy
5:35 PM 80.8 °F 81.6 °F 61.0 °F 51% 30.40 in 10.0 mi South 4.6 mph - N/A   Scattered Clouds
5:55 PM 79.9 °F - 60.4 °F 51% 30.40 in 10.0 mi SSW 4.6 mph - N/A Thunderstorm Scattered Clouds
6:15 PM 79.7 °F - 60.3 °F 51% 30.41 in 10.0 mi Calm Calm - N/A Thunderstorm Mostly Cloudy
6:35 PM 77.2 °F - 61.5 °F 58% 30.41 in 10.0 mi SW 8.1 mph - N/A Thunderstorm Thunderstorm
6:55 PM 76.1 °F - 61.9 °F 61% 30.41 in 10.0 mi West 5.8 mph - N/A Thunderstorm Clear
7:15 PM 74.5 °F - 62.6 °F 66% 30.42 in 10.0 mi WNW 8.1 mph - N/A   Clear
7:35 PM 73.6 °F - 61.9 °F 67% 30.43 in 1.8 mi WNW 5.8 mph - N/A Thunderstorm Unknown
7:55 PM 73.2 °F - 63.1 °F 71% 30.41 in 10.0 mi Calm Calm - N/A Thunderstorm Scattered Clouds
8:15 PM 72.5 °F - 62.6 °F 71% 30.42 in 10.0 mi Calm Calm - N/A   Clear
8:35 PM 72.7 °F - 63.0 °F 71% 30.42 in 10.0 mi West 3.5 mph - N/A   Clear
8:55 PM 71.1 °F - 65.1 °F 81% 30.43 in 10.0 mi Calm Calm - N/A Thunderstorm Scattered Clouds
9:15 PM 71.1 °F - 66.0 °F 84% 30.43 in 10.0 mi Calm Calm - N/A   Clear
9:35 PM 70.5 °F - 65.1 °F 83% 30.44 in 10.0 mi Calm Calm - N/A   Clear
9:55 PM 69.1 °F - 67.1 °F 93% 30.44 in 10.0 mi Calm Calm - N/A   Scattered Clouds
10:15 PM 68.4 °F - 66.7 °F 95% 30.44 in 10.0 mi Calm Calm - N/A   Scattered Clouds
10:35 PM 68.0 °F - 67.1 °F 97% 30.44 in 10.0 mi Calm Calm - N/A   Clear
10:55 PM 69.1 °F - 66.4 °F 91% 30.43 in 10.0 mi Calm Calm - N/A   Clear
11:15 PM 67.1 °F - 66.2 °F 97% 30.42 in 10.0 mi Calm Calm - N/A   Clear
11:35 PM 66.2 °F - 65.7 °F 98% 30.42 in 10.0 mi Calm Calm - N/A   Clear
11:55 PM 65.7 °F - 65.5 °F 99% 30.43 in 10.0 mi Calm Calm - N/A   Clear